Home > Weather > Wittenberg > Past weeks

Flag for Germany Past Weather in Wittenberg, Saxony-Anhalt, Germany — Yesterday and Last 2 Weeks

Now
63 °F

Passing clouds.


Feels Like: 63 °F
Forecast: 59 / 77 °F
Wind: 3 mph from Southwest

Location: Holzdorf

Current Time: Jul 30, 2016 at 3:58:57 AM

Latest Report: Jul 30, 2016 at 3:20 AM


Visibility: N/A

Pressure: 29.89 "Hg

Humidity: 94%

Dew Point: 61 °F

Location of WittenbergLocation

Past Weather in Wittenberg — Graph

°F

Wittenberg Temperature Yesterday

Maximum temperature yesterday: 79 °F (at 4:20 PM)
Minimum temperature yesterday: 63 °F (at 2:20 AM)
Average temperature yesterday: 70 °F

High & Low Weather Summary for the Past Weeks

 TemperatureHumidityPressure
High88 °F (Jul 25, 4:20 PM)100% (Jul 16, 1:20 AM)30.27 "Hg (Jul 16, 1:20 AM)
Low46 °F (Jul 16, 2:20 AM)27% (Jul 16, 3:20 PM)29.86 "Hg (Jul 29, 4:20 PM)
Average69 °F71%30.06 "Hg
* Reported Jul 15 2:20 AM — Jul 30 2:20 AM, Wittenberg, Weather by CustomWeather, © 2016

Note: Actual official high and low records may vary slightly from our data, if they occured in-between our weather recording intervals... More about our weather records

Advertising

Wittenberg Weather History for the Previous 24 Hours

Scroll right to see more
 ConditionsComfort  
Time TempWeatherWind HumidityBarometerVisibility
2:20 AM
Sat, Jul 30
64 °FPassing clouds.3 mph88%29.89 "HgN/A
1:20 AM66 °FPartly cloudy.7 mph83%29.89 "HgN/A
12:20 AM66 °FPartly cloudy.6 mph83%29.89 "HgN/A
11:20 PM
Fri, Jul 29
66 °FPartly cloudy.3 mph78%29.89 "HgN/A
10:20 PM66 °FPassing clouds.3 mph78%29.89 "HgN/A
9:20 PM70 °FScattered clouds.5 mph69%29.86 "HgN/A
8:20 PM73 °FBroken clouds.12 mph57%29.86 "HgN/A
7:20 PM73 °FBroken clouds.12 mph57%29.86 "HgN/A
6:20 PM77 °FScattered showers. Broken clouds.9 mph51%29.86 "HgN/A
5:20 PM77 °FBroken clouds.8 mph51%29.86 "HgN/A
4:20 PM79 °FScattered clouds.13 mph45%29.86 "HgN/A
3:20 PM77 °FScattered clouds.9 mph54%29.89 "HgN/A
2:20 PM75 °FBroken clouds.10 mph54%29.89 "HgN/A
1:20 PM75 °FScattered showers. Broken clouds.9 mph54%29.89 "HgN/A
12:20 PM75 °FScattered clouds.9 mph54%29.89 "HgN/A
12:00 PM73 °FScattered clouds.8 mph53%29.92 "HgN/A
11:20 AM73 °FScattered clouds.9 mph57%29.92 "HgN/A
9:20 AM70 °FScattered clouds.8 mph78%29.92 "HgN/A
8:20 AM66 °FPartly sunny.10 mph88%29.92 "HgN/A
7:20 AM64 °FPartly sunny.8 mph94%29.89 "HgN/A
6:20 AM63 °FPassing clouds.5 mph94%29.89 "HgN/A
5:20 AM63 °FPassing clouds.3 mph100%29.89 "HgN/A
4:20 AM64 °FLight rain. Partly cloudy.3 mph94%29.89 "HgN/A
3:20 AM64 °FPassing clouds.6 mph88%29.92 "HgN/A
Weather by CustomWeather, © 2016

See weather overviewHow to use our weather pages